Linus Hiljemark

Olheiro-Chefe - Halmstad
4 Dez 2028
Segunda-feira
Processo

Personalidade

Adaptabilidade (7) Ambição (18) Controvérsia (16) Lealdade (6) Pressão (10) Profissionalismo (5) Espírito Esportivo (3) Temperamento (14)

Perfil

Estilo de Treinamento Democrático
Licença Nacional A
Determinação 9
Gestão de Pessoas 10
Motivação 7
Disciplina 4
Satisfação no Trabalho
100%
Fadiga
0%
Função Olheiro-Chefe
Salário 47.8K p/s
Contrato 14.03.2030

Desempenho

Comportamento Bom
Eficácia do Treinamento
40%
Desenvolvimento do Jogador
45%
Prevenção de Lesões
40%
Implementação Tática
50%

Eventos Recentes

Participou de uma reunião de recrutamento agora
Recomendou um alvo de transferência agora
Recomendou um alvo de transferência agora
Recomendou um alvo de transferência agora
Recomendou um alvo de transferência agora
Recomendou um alvo de transferência agora
Recomendou um alvo de transferência agora
Recomendou um alvo de transferência agora

Monitorando agora

69
Jogador Clube Status Habilidade Confiança Observado Última observação Último voto
Antonio Troise Atvidaberg Ativo 89 / 101 69% 1 07.08.2028 Aprovar
Alexander Fransson AIK Ativo 105 / 107 69% 1 22.07.2028 Aprovar
Gentian Lajqi Malmo FF Negociando 105 / 109 69% 1 21.07.2028 -
Samuel Alves IFK Norrkoping Ativo 89 / 94 42% 1 / 1m 05.07.2028 -
Isaac Partey Sol de America Ativo 108 / 109 66% 1 01.02.2028 Aprovar
Ernest Appiah Sport Recife Ativo 112 / 113 66% 1 01.02.2028 Aprovar
David Boateng Cobresal Ativo 95 / 95 66% 1 01.02.2028 Aprovar
Kevin Filling AIK Ativo 100 / 110 69% 1 26.07.2027 Aprovar
Christ Wawa Gefle Ativo 105 / 110 52% 1 / 1m 05.05.2027 -
Tamas Kleinheisler St. Pauli Ativo 114 / 121 66% 1 01.02.2027 Aprovar
Caio Vidal Deportivo Pereira Ativo 128 / 129 63% 1 01.02.2027 Aprovar
Samuel Asamoah Racing Ativo 104 / 110 66% 1 01.02.2027 Aprovar
Wandile Duba ASO Chlef Ativo 111 / 117 40% 1 30.01.2027 -
Ville Nilsson Metallurg Ativo 84 / 89 40% 1 27.01.2027 -
Camillo Tavernelli Arezzo Ativo 108 / 109 40% 2 26.01.2027 -
Malik Mothersille Stockport County Ativo 126 / 132 40% 3 25.01.2027 -
Joe Gelhardt Hull City Ativo 123 / 127 40% 4 23.01.2027 -
Jacques Siwe Rubin Ativo 107 / 132 40% 2 23.01.2027 -
Tyrese Campbell Sheffield United Ativo 117 / 137 40% 3 22.01.2027 -
Filip Kubala Banik Ostrava Ativo 132 / 134 40% 3 21.01.2027 -
Rocco Vata Watford Ativo 113 / 139 40% 1 21.01.2027 -
Yousef Salech Cardiff City Ativo 132 / 139 40% 3 20.01.2027 -
Marezi Portsmouth Ativo 125 / 108 40% 4 19.01.2027 -
Richard Koné Queens Park Rangers Ativo 125 / 107 40% 3 19.01.2027 -
Etiosa Ighodaro Kaizer Chiefs Ativo 104 / 126 40% 5 18.01.2027 -
Berna CSKA 1948 Ativo 109 / 131 40% 1 15.01.2027 -
Luis Palma Lech Ativo 114 / 110 40% 1 15.01.2027 -
Santiago Pierotti Lecce Ativo 134 / 115 40% 2 14.01.2027 -
Evidence Makgopa Orlando Pirates Ativo 109 / 126 40% 2 12.01.2027 -
Josh Coburn Millwall Ativo 118 / 128 40% 1 11.01.2027 -
Erick Dolly Black Aces Ativo 110 / 129 40% 2 09.01.2027 -
Sam Greenwood Bristol City Ativo 114 / 129 40% 2 08.01.2027 -
Armstrong Oko-Flex Levski Ativo 132 / 123 40% 3 05.01.2027 -
Mohamed-Ali Cho Hull City Ativo 132 / 147 40% 1 05.01.2027 -
Fiete Arp OB Ativo 122 / 132 40% 2 04.01.2027 -
Bienvenue Kanakimana Zbrojovka Brno Ativo 117 / 135 40% 3 30.12.2026 -
Bohdan Viunnyk Lechia Ativo 118 / 100 40% 1 30.12.2026 -
Max Fenger Helsingborg Ativo 128 / 123 40% 1 29.12.2026 -
Matej Trusa DAC Dunajska Streda Ativo 124 / 124 40% 1 26.12.2026 -
Fábio Tavares Burton Albion Ativo 102 / 85 40% 1 24.12.2026 -
Brayan Gil Baltika Ativo 114 / 122 40% 1 23.12.2026 -
Aune Heggebø West Bromwich Albion Ativo 139 / 112 40% 2 21.12.2026 -
Radek Šiler Podbrezova Ativo 107 / 120 40% 1 17.12.2026 -
Ilyas Ansah Hull City Ativo 127 / 138 40% 1 17.12.2026 -
Andri Guðjohnsen Blackburn Rovers Ativo 135 / 142 40% 1 06.12.2026 -
Ola Brynhildsen Rapid Wien Ativo 124 / 122 40% 2 05.12.2026 -
Dejan Joveljić Seattle Sounders Ativo 125 / 119 40% 1 05.12.2026 -
Paulos Abraham Hammarby Ativo 117 / 121 40% 2 03.12.2026 -
Assad Al Hamlawi Universitatea Craiova Ativo 134 / 123 40% 2 01.12.2026 -
Jesus Ferreira Seattle Sounders Ativo 123 / 116 40% 1 01.12.2026 -
Ammar Ramadan DAC Dunajska Streda Ativo 119 / 106 40% 1 27.11.2026 -
Albin Andersson Falkenberg Ativo 97 / 101 40% 1 26.11.2026 -
Frederik Ihler IF Elfsborg Ativo 125 / 131 40% 1 25.11.2026 -
Luis Caicedo Spartak 1918 Ativo 89 / 106 40% 1 23.11.2026 -
Jay Stansfield Birmingham Ativo 121 / 138 40% 1 19.11.2026 -
Vinko Rozić Istra 1961 Ativo 111 / 132 40% 2 18.11.2026 -
Elijas Gunnergård Ortan Ahrobiznes Ativo 80 / 72 40% 1 15.11.2026 -
Jáder Valencia Deportes Tolima Ativo 123 / 128 40% 1 12.11.2026 -
Paschal Durugbor El Dakhleya Ativo 107 / 100 40% 1 12.11.2026 -
Marcelo Allende Mamelodi Sundowns Ativo 131 / 110 40% 2 10.11.2026 -
Marco Pašalić Orlando City Ativo 134 / 119 40% 1 10.11.2026 -
Johan Hove AIK Ativo 122 / 116 40% 1 08.11.2026 -
Wessam Abou Ali Columbus Crew Ativo 137 / 120 40% 1 07.11.2026 -
Sead Hakšabanović Malmo FF Ativo 119 / 123 40% 1 06.11.2026 -
Juan Pablo Gallego Fehervar Ativo 117 / 120 40% 1 04.11.2026 -
Daniel Kyerewaa Reading Ativo 122 / 103 40% 1 04.11.2026 -
Juan Manuel Martínez Trejo Atvidaberg Ativo 104 / 104 30% 1 / 1m 12.08.2026 -
Shea Charles Southampton Ativo 140 / 130 40% 1 02.08.2026 -
Max Bird Birmingham Ativo 129 / 121 40% 1 02.08.2026 -